Hourly Data Report for October 21, 2014

All times are specified in Local Standard Time (LST). Add 1 hour to adjust for Daylight Saving Time where and when it is observed.

BATHURST A
NEW BRUNSWICK

47°37'47.000" N
65°44'20.000" W
58.80 m
8100505
71574
ZBF

Download Data

Hourly Data (October 2014)
Hourly Data Report for October 21, 2014
Temp Definition
°C
Dew Point Temp Definition
°C
Rel Hum Definition
%
Wind Dir Definition
10's deg

Wind Spd Definition
km/h
Visibility Definition
km
Stn Press Definition
kPa
Hmdx Definition


Wind Chill Definition


Weather Definition


TIME
00:00 Legend Double Dagger 1.8 -4.5 63 28 12 24.1 100.49     LegendNANA
01:00 Legend Double Dagger 1.0 -4.5 67 26 10 24.1 100.54     LegendNANA
02:00 Legend Double Dagger 1.6 -4.3 65 28 10 24.1 100.58     Mainly Clear
03:00 Legend Double Dagger 1.3 -4.4 66 25 9 24.1 100.61     LegendNANA
04:00 Legend Double Dagger 0.3 -4.2 72 24 7 24.1 100.72     LegendNANA
05:00 Legend Double Dagger 0.1 -4.0 74 25 14 24.1 100.82     Clear
06:00 Legend Double Dagger 0.2 -3.9 74 25 11 24.1 100.89     LegendNANA
07:00 Legend Double Dagger -0.4 -4.0 77 25 10 24.1 100.99   -4 LegendNANA
08:00 Legend Double Dagger 1.8 -3.5 68 26 13 24.1 101.10     Mainly Clear
09:00 Legend Double Dagger 3.8 -3.0 61 29 7 24.1 101.15     LegendNANA
10:00 Legend Double Dagger 5.3 -3.0 55 26 15 24.1 101.16     LegendNANA
11:00 Legend Double Dagger 7.3 -2.4 50 24 14 24.1 101.22     Mainly Clear
12:00 Legend Double Dagger 8.4 -2.0 48 23 10 24.1 101.19     LegendNANA
13:00 Legend Double Dagger 9.2 -2.4 44 25 10 24.1 101.23     LegendNANA
14:00 Legend Double Dagger 10.4 -1.6 43 23 10 24.1 101.24     Mainly Clear
15:00 Legend Double Dagger 10.9 -2.5 39 28 10 24.1 101.30     LegendNANA
16:00 Legend Double Dagger 9.7 -0.2 50 4 6 24.1 101.37     LegendNANA
17:00 Legend Double Dagger 8.0 0.5 59 7 5 24.1 101.47     Mainly Clear
18:00 Legend Double Dagger 5.2 0.8 73 32 7 24.1 101.57     LegendNANA
19:00 Legend Double Dagger 2.3 0.4 87 25 3 24.1 101.66     LegendNANA
20:00 Legend Double Dagger 2.1 0.0 86 36 3 24.1 101.68     Mostly Cloudy
21:00 Legend Double Dagger 5.4 -0.2 67 34 7 24.1 101.74     LegendNANA
22:00 Legend Double Dagger 4.3 -0.1 73 34 4 24.1 101.88     LegendNANA
23:00 Legend Double Dagger 3.8 0.1 77 31 6 24.1 101.97     Mostly Cloudy

Notes on Data Quality.

Legend

  • E = Estimated
  • M = Missing
  • NA = Not Available
  • ‡ = Partner data that is not subject to review by the National Climate Archives
Date modified: